Location: Newark
(45.5000°N, 11.4167°E)
Time: 03:58:49
(UTC+00:00)

Vanguard 2 - Pass Details

Date: 26 August 2019
Orbit: 554 x 2937 km, 32.9° (Epoch: 15 September)

Event Time Altitude Azimuth Distance (km) Brightness Sun altitude
Rises 16:56:22 0° 262° (W) 4,630 13.4 10.8°
Reaches altitude 10° 17:00:32 10° 243° (WSW) 4,064 12.4 10.1°
Maximum altitude 17:07:11 18° 207° (SSW) 4,049 11.6 8.9°
Drops below altitude 10° 17:15:28 10° 173° (S) 5,232 11.6 7.5°
Sets 17:22:14 0° 157° (SSE) 6,569 12.0 6.3°
